Hourly Data Report for October 29, 2017

All times are specified in Local Standard Time (LST). Add 1 hour to adjust for Daylight Saving Time where and when it is observed.

SATURNA ISLAND CS
BRITISH COLUMBIA

48°47'02.067" N
123°02'41.082" W
24.40 m
1017101
71473
WEZ

Download Data

Hourly Data (October 2017)
Hourly Data Report for October 29, 2017
Temp Definition
°C
Dew Point Temp Definition
°C
Rel Hum Definition
%
Wind Dir Definition
10's deg

Wind Spd Definition
km/h
Visibility Definition
km
Stn Press Definition
kPa
Hmdx Definition


Wind Chill Definition


Weather Definition


TIME
00:00 10.2 8.7 90 30 6   101.23     LegendNANA
01:00 10.0 8.3 89 31 3   101.25     LegendNANA
02:00 9.9 8.5 91 29 5   101.25     LegendNANA
03:00 9.9 8.5 91 31 6   101.24     LegendNANA
04:00 9.8 8.5 92 30 8   101.25     LegendNANA
05:00 9.5 8.5 94 6 1   101.30     LegendNANA
06:00 9.7 8.8 94 27 1   101.32     LegendNANA
07:00 9.7 8.8 94 30 5   101.38     LegendNANA
08:00 10.8 9.8 94 33 4   101.42     LegendNANA
09:00 11.6 9.6 88 29 5   101.48     LegendNANA
10:00 11.5 9.5 87 29 7   101.49     LegendNANA
11:00 12.0 9.5 85 30 6   101.52     LegendNANA
12:00 12.3 9.4 83 28 7   101.52     LegendNANA
13:00 12.4 9.5 83 28 7   101.50     LegendNANA
14:00 11.8 9.4 85 30 11   101.50     LegendNANA
15:00 11.7 9.7 87 30 10   101.51     LegendNANA
16:00 11.8 9.8 88 31 13   101.55     LegendNANA
17:00 11.8 9.4 86 31 13   101.61     LegendNANA
18:00 11.8 9.3 84 31 16   101.65     LegendNANA
19:00 13.9 4.4 53 1 35   101.69     LegendNANA
20:00 13.8 3.5 50 2 34   101.77     LegendNANA
21:00 14.5 0.5 39 3 30   101.84     LegendNANA
22:00 14.7 -0.3 36 4 37   101.91     LegendNANA
23:00 14.3 0.3 38 4 36   101.95     LegendNANA

Notes on Data Quality.

Legend

  • E = Estimated
  • M = Missing
  • NA = Not Available
  • ‡ = Partner data that is not subject to review by the National Climate Archives
Date modified: